"Pseudo-MPEC" for 1965-058A = NORAD 01458 = Vela 3a

Created 2020 Oct 14 13:14:30 UT using Find_Orb

Click here for an explanation of pseudo-MPECs

 
 Astrometry: 
1965-058A     C2004 04 26.71357 21 10 13.62 -13 56 25.1         x      rD0001E12
1965-058A     C2004 04 26.72308 21 11 36.44 -13 39 28.1         x      rD0001E12
1965-058A     C2004 04 26.72378 21 11 41.98 -13 38 13.6         x      rD0001E12
1965-058A     C2004 04 26.73325 21 13 04.02 -13 20 54.2         x      rD0001E12
1965-058A     C2004 04 26.74348 21 14 31.30 -13 01 52.6         x      rD0001E12
1965-058A     C2004 04 26.74418 21 14 36.71 -13 00 35.4         x      rD0001E12
1965-058A     C2015 03 10.10337 02 47 01.46 +11 06 59.7         x15.8 VqD0516703
1965-058A     C2015 03 10.10739 02 47 25.74 +11 09 10.7         x15.8 VqD0516703
1965-058A     C2015 03 10.11139 02 47 50.40 +11 11 22.1         x16.0 VqD0516703
1965-058A     C2015 03 10.11539 02 48 15.23 +11 13 32.3         x15.8 VqD0516703
1965-058A     C2015 12 01.35778 03 31 13.38 +15 53 39.9         x16.7 VqD0540703
1965-058A     C2015 12 01.36463 03 31 53.94 +15 57 05.1         x16.5 VqD0540703
1965-058A     C2015 12 01.37149 03 32 35.15 +16 00 27.5         x16.5 VqD0540703
1965-058A     C2015 12 01.37834 03 33 16.95 +16 03 45.5         x      qD0540703
1965-058A     C2015 12 01.40829 03 36 28.22 +16 17 41.2         x16.4 VqD0540703
1965-058A     C2015 12 01.40856 03 36 30.06 +16 17 48.8         x16.2 VqD0540703
1965-058A     C2015 12 01.40883 03 36 31.79 +16 17 56.0         x16.4 VqD0540703
1965-058A     C2015 12 01.40910 03 36 33.61 +16 18 02.5         x16.6 VqD0540703
1965-058A     C2015 12 01.41089803 36 35.25 +16 13 50.4         x17.3 VtD0540H01
1965-058A     C2015 12 01.41739103 37 19.99 +16 16 41.6         x17.3 VtD0540H01
1965-058A     C2015 12 01.42436603 38 08.91 +16 19 43.1         x17.2 VtD0540H01
1965-058A     C2015 12 01.43139603 38 59.09 +16 22 43.3         x17.4 VtD0540H01
1965-058A     C2015 12 01.44939503 41 11.83 +16 30 14.7         x17.1 VtD0540H01
1965-058A     C2015 12 01.45628403 42 04.22 +16 33 03.5         x17.2 VtD0540H01
1965-058A     C2015 12 01.46232 03 42 52.31 +16 40 41.8         x16.8 VqD0540703
1965-058A     C2015 12 01.46253 03 42 53.93 +16 40 46.0         x16.8 VqD0540703
1965-058A     C2015 12 01.46275 03 42 55.60 +16 40 52.6         x16.8 VqD0540703
1965-058A     C2015 12 01.46295 03 42 57.17 +16 40 57.4         x16.8 VqD0540703
1965-058A     C2015 12 01.46354203 43 00.52 +16 35 59.7         x17.3 VtD0540H01
1965-058A     C2015 12 01.47049103 43 55.36 +16 38 46.3         x17.3 VtD0540H01
1965-058A     C2015 12 01.52341 04 03 04.06 +17 29 36.7         x16.7 V D0540900
1965-058A     C2015 12 01.52474 04 03 12.91 +17 30 30.6         x16.9 V D0540900
1965-058A     C2015 12 01.52607 04 03 21.72 +17 31 24.8         x16.8 V D0540900
1965-058A     C2015 12 01.52739 04 03 30.54 +17 32 18.5         x16.9 V D0540900
1965-058A     C2016 01 12.15969 02 49 36.33 +12 26 54.4         x16.2 VqD0541703
1965-058A     C2016 01 12.16471 02 50 00.13 +12 29 59.6         x16.2 VqD0541703
1965-058A     C2016 01 12.16974 02 50 24.05 +12 33 03.2         x16.6 VqD0541703
1965-058A     C2016 01 12.20365202 52 50.99 +12 48 55.7         x16.8 VtD0541H01
1965-058A     C2016 01 12.21133102 53 31.06 +12 53 14.4         x16.8 VtD0541H01
1965-058A     C2016 01 12.22099102 54 22.44 +12 58 36.8         x16.6 VtD0541H01
1965-058A     C2016 01 12.22536102 54 46.01 +13 01 00.5         x16.7 VtD0541H01
1965-058A     C2016 01 12.23641 02 56 01.61 +13 11 19.6         x16.2 VqD0541703
1965-058A     C2016 01 12.24073 02 56 25.12 +13 13 39.8         x16.2 VqD0541703
1965-058A     C2016 01 12.24504 02 56 48.81 +13 15 59.0         x16.2 VqD0541703
1965-058A     C2016 01 12.24935 02 57 12.70 +13 18 17.0         x16.2 VqD0541703
1965-058A     C2016 01 21.12900 02 03 08.81 +08 04 37.3         x17.1 VqD0541703
1965-058A     C2016 01 21.13501 02 03 35.63 +08 08 33.3         x17.0 VqD0541703
1965-058A     C2016 01 21.14102 02 04 02.69 +08 12 28.0         x17.1 VqD0541703
1965-058A     C2016 01 21.14907 02 04 39.39 +08 17 39.3         x16.9 VqD0541703
1965-058A     C2016 01 21.14939 02 04 40.89 +08 17 52.5         x17.1 VqD0541703
1965-058A     C2016 01 21.14972 02 04 42.41 +08 18 05.0         x16.9 VqD0541703
1965-058A     C2016 01 21.15005 02 04 43.90 +08 18 17.3         x17.0 VqD0541703
1965-058A     C2016 01 21.15067 02 04 46.79 +08 18 41.6         x17.1 VqD0541703
1965-058A     C2016 01 21.15094 02 04 47.96 +08 18 52.0         x17.0 VqD0541703
1965-058A     C2016 01 21.15121 02 04 49.30 +08 19 02.3         x17.0 VqD0541703
1965-058A     C2016 01 21.15148 02 04 50.50 +08 19 12.6         x16.9 VqD0541703
1965-058A     C2016 01 21.23870 02 12 13.31 +09 12 27.9         x16.6 VqD0541703
1965-058A     C2016 01 21.23908 02 12 15.39 +09 12 40.0         x16.6 VqD0541703
1965-058A     C2016 01 21.23947 02 12 17.58 +09 12 54.5         x17.2 VqD0541703
1965-058A     C2016 01 21.23985 02 12 19.79 +09 13 07.7         x16.9 VqD0541703
1965-058A     C2016 10 29.33215 03 10 46.50 +15 05 17.0         x19.5 VqD0552703
1965-058A     C2016 10 29.33666 03 11 06.71 +15 07 55.0         x19.0 VqD0552703
1965-058A     C2016 10 29.34117 03 11 26.24 +15 10 26.5         x18.9 VqD0552703
1965-058A     C2016 10 29.34568 03 11 46.41 +15 13 02.0         x18.7 VqD0552703
1965-058A     C2016 12 23.82387301 31 04.170+05 14 44.58        x16.5 GUD0554598
1965-058A     C2016 12 23.82576701 31 14.346+05 16 17.31        x16.5 GUD0554598
1965-058A     C2016 12 23.82736601 31 22.925+05 17 35.38        x16.5 GUD0554598
1965-058A     C2016 12 23.82928801 31 33.281+05 19 09.13        x16.1 GUD0554598
1965-058A     C2016 12 23.83122801 31 43.732+05 20 43.86        x16.4 GUD0554598
     YW1555F  C2017 11 22.32956 04 06 49.89 +19 28 31.4         x18.1 GUD0560703
     YW1555F  C2017 11 22.32973 04 06 50.71 +19 28 35.0         x17.9 GUD0560703
     YW1555F  C2017 11 22.32990 04 06 51.51 +19 28 38.4         x18.1 GUD0560703
     YW1555F  C2017 11 22.33009 04 06 52.38 +19 28 42.6         x18.0 GUD0560703
     ZVB4207  C2018 11 10.30481 02 24 50.09 +12 37 47.4          19.2 GV     G96
     ZVB4207  C2018 11 10.30994 02 25 18.66 +12 41 09.9          19.5 GV     G96
     ZVB4207  C2018 11 10.31506 02 25 47.82 +12 44 33.7                V     G96
     ZVB4207  C2018 11 10.32021 02 26 16.57 +12 47 52.3          19.8 GV     G96
     C0046V1  C2019 01 05.16524 02 11 07.26 +11 31 47.9          18.1 GV     703
     C0046V1  C2019 01 05.17091 02 11 45.81 +11 36 12.5          17.8 GV     703
     C0046V1  C2019 01 05.17658 02 12 23.57 +11 40 25.6          17.4 GV     703
     C0046V1  C2019 01 05.18225 02 13 02.65 +11 44 47.5          17.3 GV     703
     C1EHWX2  C2019 11 05.30344 03 09 39.27 +15 30 27.0                V     G96
     C1EHWX2  C2019 11 05.30852 03 10 09.66 +15 33 27.9                V     G96
     C1EHWX2  C2019 11 05.31359 03 10 40.08 +15 36 27.5          19.8 GV     G96
     C1EMGR2  C2019 11 05.32390 03 11 41.40 +15 42 21.8          19.4 GV     G96
     C1EMGR2  C2019 11 05.32903 03 12 11.80 +15 45 14.0          20.3 GV     G96
     C1EMGR2  C2019 11 05.33416 03 12 42.30 +15 48 03.2                V     G96
     C1ETZE1  C2020 10 14.44292 08 18 09.03 +17 37 34.9                V     703
     C1ETZE1  C2020 10 14.44820 08 18 53.36 +17 35 59.1          16.2 GV     703
     C1ETZE1  C2020 10 14.45348 08 19 37.22 +17 34 19.9          16.4 GV     703
     C1ETZE1  C2020 10 14.45876 08 20 20.78 +17 32 38.1          16.3 GV     703

Station data:
(598) Loiano  (N44.259208 E11.334090)  Italy.  Observers A. Buzzoni, R.
   Gualandi, F. Matassoni. Measurers M. Micheli, A. Buzzoni, C. Colombo, P.
   Di Lizia. 1.52-m f/8 Ritchey-Chrétien + CCD.
(703) Catalina Sky Survey  (N32.417006 W110.732640)  US/Arizona.  Observers
   E. J. Christensen, G. J. Leonard, R. E. Hill, B. M. Africano, D. C. Fuls.
   Measurers E. J. Christensen, D. C. Fuls, A. R. Gibbs, A. D. Grauer, J. A.
   Johnson, R. A. Kowalski, S. M. Larson, G. J. Leonard, R. G. Matheny, R. L.
   Seaman, F. C. Shelly, R. E. Hill, B. M. Africano, G. A. Farneth, H.
   Gröller, T. A. Pruyne, D. Rankin, K. W. Wierzchoś. 0.68-m Schmidt + CCD,
   0.68-m Schmidt + 10K CCD.
(900) Moriyama  (N35.049756 E135.989940)  Japan. 0.25-m Schmidt-Cassegrain.
(E12) Siding Spring Survey  (S31.273455 E149.064200)  Australia/NSW.
   Observers T. A. Pruyne, B. M. Africano, E. C. Beshore, E. J. Christensen,
   G. A. Farneth, D. C. Fuls, A. R. Gibbs, A. D. Grauer, H. Gröller, R. E.
   Hill, J. A. Johnson, S. Kolar, R. A. Kowalski, S. M. Larson, G. J.
   Leonard, R. G. Matheny, D. McLean, D. Rankin, R. L. Seaman, F. C. Shelly,
   K. W. Wierzchoś. 0.5-m Uppsala Schmidt + CCD.
(G96) Mt. Lemmon Survey  (N32.442754 W110.788720)  US/Arizona.  Observer G.
   J. Leonard. Measurers B. M. Africano, E. J. Christensen, G. A. Farneth, D.
   C. Fuls, A. R. Gibbs, A. D. Grauer, H. Gröller, J. A. Johnson, R. A.
   Kowalski, S. M. Larson, G. J. Leonard, R. L. Seaman, F. C. Shelly, T. A.
   Pruyne, D. Rankin, K. W. Wierzchoś. 1.5-m reflector + 10K CCD.
(H01) Magdalena Ridge Observatory, Socorro  (N33.984833 W107.189333)  US/New
   Mexico.  Observers W. H. Ryan, E. V. Ryan. Measurer W. H. Ryan. 2.4-m
   f/8.9 reflector + CCD.

Orbital elements:  1965-058A = NORAD 01458 = Vela 3a
   Perigee 2020 Apr 29.947486 +/- 0.000786738 TT = 22:44:22.7 (JD 2458969.447486)
Epoch 2020 May  1.0 TT; AMR 0.0083314 +/- 0.00358418 m2/kg   Find_Orb
M  80.991771097 +/- 0.06059         (J2000 equator)
n  76.950775889 +/- 5.42649e-6      Peri.  261.732662 +/- 0.042836
a118157.5572 +/- 0.0055548          Node     1.173015 +/- 0.007710
e   0.49620163 +/- 0.000191808      Incl.   21.341176 +/- 0.000136798
P6736.65m/4.678d           H 31.7   G  0.15   U  5.2
q 59527.58370 +/- 22.6645    Q 176787.5308 +/- 22.6605
18 of 91 observations 2018 Nov. 10-2020 Oct. 14; mean residual 3".504
Residuals in arcseconds: 
